User: anonymous   Login
Location: Bacea
(45.9500°N, 22.6667°E)
Time: 03:42:08
(UTC+00:00)
Language:

Okean-O - Orbit

View from above orbital plane
View from above orbital plane
View from above satellite
View from above satellite

Ground track
Ground track

The orbit data is extracted from the following two-line orbital elements,

1 25860U 99039A   22026.58433392  .00000187  00000-0  34213-4 0  9993
2 25860  98.1592  65.0847 0001692 106.9911 253.1484 14.76816497212311
Epoch (UTC): 26 January 2022 14:01:26
Eccentricity: 0.0001692
inclination: 98.1592°
perigee height: 638 km
apogee height: 640 km
right ascension of ascending node: 65.0847°
argument of perigee: 106.9911°
revolutions per day: 14.76816497
mean anomaly at epoch: 253.1484°
orbit number at epoch: 21231

The dashed part of the orbit path shows where the satellite is in the earth's shadow,  

DLR